Disclaimer

Please do not use the information listed here in-flight or in-navigation, as they are not provided to us by the airports but are provided by volunteers, so they might be outdated.

Search


Regions


Airport information page

Radio informations:
Tower (TWR) - 118.3 MHz
RADAR - 120.7 MHz
INFO - 124.85 MHz
Ground (GND) - 121.85 MHz
Automatic Terminal Information Service (ATIS) - 124.375 MHz
Approach (APP) - 120.7 MHz

Airport informations:
Latitude: 45° 44' 34.55" N
Longitude: 016° 04' 07.60" E
Elevation: 353 feet - 108 meters
Operating hours: 24 hour operations
Operating agency: Civil government, landing fees and diplomatic clearance may be required
Timezone: UTC+1(+2DT) - Last Sunday in March to last Sunday in October
Fuel: Jet A1+, Jet A1 with icing inhibitor.

100/130 MIL Spec, low lead, aviation gasoline (BLUE)

Runway information:
05/23 - 10669 x 148 feet< - >3252 x 45 meters

Recent METARs:
LDZA 221930Z 04007KT 010V080 4000 -SN BR SCT005 BKN015 OVC030 M01/M02 Q1007 RESN R05/590195 TEMPO BKN010 OVC020
LDZA 222000Z 05006KT 010V080 2500 -SN BR FEW006 BKN010 OVC020 M01/M02 Q1007 RESN R05/590195 TEMPO BKN005
LDZA 222030Z 04005KT 360V070 3500 -SN BR OVC006 M01/M02 Q1006 R05/590195 NOSIG

Airport on the map: